<?xml version="1.0" encoding="UTF-8"?>
<gpx
version="1.1"
creator="Kashmir3D 9.350 - http://www.kashmir3d.com"
xmlns:xsi="http://www.w3.org/2001/XMLSchema-instance"
xmlns="http://www.topografix.com/GPX/1/1"
xmlns:kashmir3d="http://www.kashmir3d.com/namespace/kashmir3d"
xsi:schemaLocation="http://www.topografix.com/GPX/1/1 http://www.topografix.com/GPX/1/1/gpx.xsd
	http://www.kashmir3d.com/namespace/kashmir3d http://www.kashmir3d.com/namespace/kashmir3d.xsd">
<trk>
 <name>MAYASAN_GOKISHIROTENBOUDAI.KML(五鬼城展望台)</name>
 <number>1</number>
 <extensions>
 <kashmir3d:line_color>0000ff</kashmir3d:line_color>
 <kashmir3d:line_size>3</kashmir3d:line_size>
 <kashmir3d:line_style>1</kashmir3d:line_style>
 <kashmir3d:icon>901001</kashmir3d:icon>
 </extensions>
<trkseg>
<trkpt lat="34.719754" lon="135.216265">
 <ele>139.3</ele>
 <time>2020-03-26T16:07:41Z</time>
</trkpt>
<trkpt lat="34.719600" lon="135.215943">
 <ele>139.2</ele>
 <time>2020-03-26T16:07:41Z</time>
</trkpt>
<trkpt lat="34.719582" lon="135.215814">
 <ele>140.5</ele>
 <time>2020-03-26T16:07:41Z</time>
</trkpt>
<trkpt lat="34.719763" lon="135.215642">
 <ele>143.5</ele>
 <time>2020-03-26T16:07:41Z</time>
</trkpt>
<trkpt lat="34.719642" lon="135.215310">
 <ele>144.1</ele>
 <time>2020-03-26T16:07:41Z</time>
</trkpt>
<trkpt lat="34.719642" lon="135.215245">
 <ele>144.3</ele>
 <time>2020-03-26T16:07:42Z</time>
</trkpt>
<trkpt lat="34.719737" lon="135.215159">
 <ele>147</ele>
 <time>2020-03-26T16:07:42Z</time>
</trkpt>
<trkpt lat="34.719857" lon="135.215074">
 <ele>150.3</ele>
 <time>2020-03-26T16:07:42Z</time>
</trkpt>
<trkpt lat="34.719969" lon="135.214988">
 <ele>154.8</ele>
 <time>2020-03-26T16:07:42Z</time>
</trkpt>
<trkpt lat="34.719969" lon="135.214902">
 <ele>156.9</ele>
 <time>2020-03-26T16:07:42Z</time>
</trkpt>
<trkpt lat="34.719943" lon="135.214805">
 <ele>156.6</ele>
 <time>2020-03-26T16:07:42Z</time>
</trkpt>
<trkpt lat="34.719883" lon="135.214698">
 <ele>158.3</ele>
 <time>2020-03-26T16:07:42Z</time>
</trkpt>
<trkpt lat="34.719848" lon="135.214559">
 <ele>152.5</ele>
 <time>2020-03-26T16:07:42Z</time>
</trkpt>
<trkpt lat="34.719857" lon="135.214473">
 <ele>154.5</ele>
 <time>2020-03-26T16:07:42Z</time>
</trkpt>
<trkpt lat="34.719909" lon="135.214419">
 <ele>153.9</ele>
 <time>2020-03-26T16:07:42Z</time>
</trkpt>
<trkpt lat="34.719977" lon="135.214419">
 <ele>159.8</ele>
 <time>2020-03-26T16:07:43Z</time>
</trkpt>
<trkpt lat="34.720020" lon="135.214462">
 <ele>164.3</ele>
 <time>2020-03-26T16:07:43Z</time>
</trkpt>
<trkpt lat="34.720123" lon="135.214398">
 <ele>170.4</ele>
 <time>2020-03-26T16:07:43Z</time>
</trkpt>
<trkpt lat="34.720218" lon="135.214355">
 <ele>172.9</ele>
 <time>2020-03-26T16:07:43Z</time>
</trkpt>
<trkpt lat="34.720269" lon="135.214387">
 <ele>173.7</ele>
 <time>2020-03-26T16:07:43Z</time>
</trkpt>
<trkpt lat="34.720329" lon="135.214441">
 <ele>180</ele>
 <time>2020-03-26T16:07:43Z</time>
</trkpt>
<trkpt lat="34.720389" lon="135.214473">
 <ele>182.5</ele>
 <time>2020-03-26T16:07:43Z</time>
</trkpt>
<trkpt lat="34.720466" lon="135.214451">
 <ele>187.3</ele>
 <time>2020-03-26T16:07:43Z</time>
</trkpt>
<trkpt lat="34.720475" lon="135.214333">
 <ele>191.5</ele>
 <time>2020-03-26T16:07:43Z</time>
</trkpt>
<trkpt lat="34.720458" lon="135.214258">
 <ele>194.8</ele>
 <time>2020-03-26T16:07:44Z</time>
</trkpt>
<trkpt lat="34.720492" lon="135.214194">
 <ele>196</ele>
 <time>2020-03-26T16:07:44Z</time>
</trkpt>
<trkpt lat="34.720501" lon="135.214076">
 <ele>191.2</ele>
 <time>2020-03-26T16:07:44Z</time>
</trkpt>
<trkpt lat="34.720578" lon="135.214044">
 <ele>194.9</ele>
 <time>2020-03-26T16:07:44Z</time>
</trkpt>
<trkpt lat="34.720527" lon="135.213936">
 <ele>192.7</ele>
 <time>2020-03-26T16:07:44Z</time>
</trkpt>
<trkpt lat="34.720466" lon="135.213872">
 <ele>191.6</ele>
 <time>2020-03-26T16:07:44Z</time>
</trkpt>
<trkpt lat="34.720466" lon="135.213754">
 <ele>195.6</ele>
 <time>2020-03-26T16:07:44Z</time>
</trkpt>
<trkpt lat="34.720518" lon="135.213700">
 <ele>198.6</ele>
 <time>2020-03-26T16:07:44Z</time>
</trkpt>
<trkpt lat="34.720561" lon="135.213679">
 <ele>199.4</ele>
 <time>2020-03-26T16:07:44Z</time>
</trkpt>
<trkpt lat="34.720587" lon="135.213593">
 <ele>201.1</ele>
 <time>2020-03-26T16:07:44Z</time>
</trkpt>
<trkpt lat="34.720647" lon="135.213518">
 <ele>208.3</ele>
 <time>2020-03-26T16:07:45Z</time>
</trkpt>
<trkpt lat="34.720698" lon="135.213550">
 <ele>207.2</ele>
 <time>2020-03-26T16:07:45Z</time>
</trkpt>
<trkpt lat="34.720698" lon="135.213625">
 <ele>205.8</ele>
 <time>2020-03-26T16:07:45Z</time>
</trkpt>
<trkpt lat="34.720698" lon="135.213690">
 <ele>207.2</ele>
 <time>2020-03-26T16:07:45Z</time>
</trkpt>
<trkpt lat="34.720741" lon="135.213775">
 <ele>211.1</ele>
 <time>2020-03-26T16:07:45Z</time>
</trkpt>
<trkpt lat="34.720775" lon="135.213808">
 <ele>213.2</ele>
 <time>2020-03-26T16:07:45Z</time>
</trkpt>
<trkpt lat="34.720836" lon="135.213818">
 <ele>214.6</ele>
 <time>2020-03-26T16:07:45Z</time>
</trkpt>
<trkpt lat="34.720904" lon="135.213883">
 <ele>216.9</ele>
 <time>2020-03-26T16:07:45Z</time>
</trkpt>
<trkpt lat="34.720904" lon="135.213990">
 <ele>212.8</ele>
 <time>2020-03-26T16:07:45Z</time>
</trkpt>
<trkpt lat="34.720887" lon="135.214044">
 <ele>213.2</ele>
 <time>2020-03-26T16:07:46Z</time>
</trkpt>
<trkpt lat="34.720887" lon="135.214097">
 <ele>213.7</ele>
 <time>2020-03-26T16:07:46Z</time>
</trkpt>
<trkpt lat="34.720887" lon="135.214194">
 <ele>219.1</ele>
 <time>2020-03-26T16:07:46Z</time>
</trkpt>
<trkpt lat="34.720913" lon="135.214258">
 <ele>222.4</ele>
 <time>2020-03-26T16:07:46Z</time>
</trkpt>
<trkpt lat="34.720913" lon="135.214301">
 <ele>224</ele>
 <time>2020-03-26T16:07:46Z</time>
</trkpt>
<trkpt lat="34.720913" lon="135.214344">
 <ele>224</ele>
 <time>2020-03-26T16:07:46Z</time>
</trkpt>
<trkpt lat="34.720861" lon="135.214366">
 <ele>218.4</ele>
 <time>2020-03-26T16:07:46Z</time>
</trkpt>
<trkpt lat="34.720913" lon="135.214344">
 <ele>224</ele>
 <time>2020-03-26T16:07:46Z</time>
</trkpt>
<trkpt lat="34.720913" lon="135.214301">
 <ele>224</ele>
 <time>2020-03-26T16:07:46Z</time>
</trkpt>
<trkpt lat="34.720913" lon="135.214258">
 <ele>222.4</ele>
 <time>2020-03-26T16:07:46Z</time>
</trkpt>
<trkpt lat="34.720887" lon="135.214194">
 <ele>219.1</ele>
 <time>2020-03-26T16:07:47Z</time>
</trkpt>
<trkpt lat="34.720887" lon="135.214097">
 <ele>213.7</ele>
 <time>2020-03-26T16:07:47Z</time>
</trkpt>
<trkpt lat="34.720887" lon="135.214044">
 <ele>213.2</ele>
 <time>2020-03-26T16:07:47Z</time>
</trkpt>
<trkpt lat="34.720904" lon="135.213990">
 <ele>212.8</ele>
 <time>2020-03-26T16:07:47Z</time>
</trkpt>
<trkpt lat="34.720904" lon="135.213883">
 <ele>216.9</ele>
 <time>2020-03-26T16:07:47Z</time>
</trkpt>
<trkpt lat="34.720836" lon="135.213818">
 <ele>214.6</ele>
 <time>2020-03-26T16:07:47Z</time>
</trkpt>
<trkpt lat="34.720775" lon="135.213808">
 <ele>213.2</ele>
 <time>2020-03-26T16:07:47Z</time>
</trkpt>
<trkpt lat="34.720741" lon="135.213775">
 <ele>211.1</ele>
 <time>2020-03-26T16:07:47Z</time>
</trkpt>
<trkpt lat="34.720698" lon="135.213690">
 <ele>207.2</ele>
 <time>2020-03-26T16:07:47Z</time>
</trkpt>
<trkpt lat="34.720698" lon="135.213625">
 <ele>205.8</ele>
 <time>2020-03-26T16:07:47Z</time>
</trkpt>
<trkpt lat="34.720698" lon="135.213550">
 <ele>207.2</ele>
 <time>2020-03-26T16:07:48Z</time>
</trkpt>
<trkpt lat="34.720647" lon="135.213518">
 <ele>208.3</ele>
 <time>2020-03-26T16:07:48Z</time>
</trkpt>
<trkpt lat="34.720587" lon="135.213593">
 <ele>201.1</ele>
 <time>2020-03-26T16:07:48Z</time>
</trkpt>
<trkpt lat="34.720561" lon="135.213679">
 <ele>199.4</ele>
 <time>2020-03-26T16:07:48Z</time>
</trkpt>
<trkpt lat="34.720518" lon="135.213700">
 <ele>198.6</ele>
 <time>2020-03-26T16:07:48Z</time>
</trkpt>
<trkpt lat="34.720466" lon="135.213754">
 <ele>195.6</ele>
 <time>2020-03-26T16:07:48Z</time>
</trkpt>
<trkpt lat="34.720466" lon="135.213872">
 <ele>191.6</ele>
 <time>2020-03-26T16:07:48Z</time>
</trkpt>
<trkpt lat="34.720527" lon="135.213936">
 <ele>192.7</ele>
 <time>2020-03-26T16:07:48Z</time>
</trkpt>
<trkpt lat="34.720578" lon="135.214044">
 <ele>194.9</ele>
 <time>2020-03-26T16:07:48Z</time>
</trkpt>
<trkpt lat="34.720501" lon="135.214076">
 <ele>191.2</ele>
 <time>2020-03-26T16:07:48Z</time>
</trkpt>
<trkpt lat="34.720492" lon="135.214194">
 <ele>196</ele>
 <time>2020-03-26T16:07:49Z</time>
</trkpt>
<trkpt lat="34.720458" lon="135.214258">
 <ele>194.8</ele>
 <time>2020-03-26T16:07:49Z</time>
</trkpt>
<trkpt lat="34.720475" lon="135.214333">
 <ele>191.5</ele>
 <time>2020-03-26T16:07:49Z</time>
</trkpt>
<trkpt lat="34.720466" lon="135.214451">
 <ele>187.3</ele>
 <time>2020-03-26T16:07:49Z</time>
</trkpt>
<trkpt lat="34.720389" lon="135.214473">
 <ele>182.5</ele>
 <time>2020-03-26T16:07:49Z</time>
</trkpt>
<trkpt lat="34.720329" lon="135.214441">
 <ele>180</ele>
 <time>2020-03-26T16:07:49Z</time>
</trkpt>
<trkpt lat="34.720269" lon="135.214387">
 <ele>173.7</ele>
 <time>2020-03-26T16:07:49Z</time>
</trkpt>
<trkpt lat="34.720218" lon="135.214355">
 <ele>172.9</ele>
 <time>2020-03-26T16:07:49Z</time>
</trkpt>
<trkpt lat="34.720123" lon="135.214398">
 <ele>170.4</ele>
 <time>2020-03-26T16:07:49Z</time>
</trkpt>
<trkpt lat="34.720020" lon="135.214462">
 <ele>164.3</ele>
 <time>2020-03-26T16:07:50Z</time>
</trkpt>
<trkpt lat="34.719977" lon="135.214419">
 <ele>159.8</ele>
 <time>2020-03-26T16:07:50Z</time>
</trkpt>
<trkpt lat="34.719909" lon="135.214419">
 <ele>153.9</ele>
 <time>2020-03-26T16:07:50Z</time>
</trkpt>
<trkpt lat="34.719857" lon="135.214473">
 <ele>154.5</ele>
 <time>2020-03-26T16:07:50Z</time>
</trkpt>
<trkpt lat="34.719848" lon="135.214559">
 <ele>152.5</ele>
 <time>2020-03-26T16:07:50Z</time>
</trkpt>
<trkpt lat="34.719883" lon="135.214698">
 <ele>158.3</ele>
 <time>2020-03-26T16:07:50Z</time>
</trkpt>
<trkpt lat="34.719943" lon="135.214805">
 <ele>156.6</ele>
 <time>2020-03-26T16:07:50Z</time>
</trkpt>
<trkpt lat="34.719969" lon="135.214902">
 <ele>156.9</ele>
 <time>2020-03-26T16:07:50Z</time>
</trkpt>
<trkpt lat="34.719969" lon="135.214988">
 <ele>154.8</ele>
 <time>2020-03-26T16:07:50Z</time>
</trkpt>
<trkpt lat="34.719857" lon="135.215074">
 <ele>150.3</ele>
 <time>2020-03-26T16:07:50Z</time>
</trkpt>
<trkpt lat="34.719737" lon="135.215159">
 <ele>147</ele>
 <time>2020-03-26T16:07:51Z</time>
</trkpt>
<trkpt lat="34.719642" lon="135.215245">
 <ele>144.3</ele>
 <time>2020-03-26T16:07:51Z</time>
</trkpt>
<trkpt lat="34.719642" lon="135.215310">
 <ele>144.1</ele>
 <time>2020-03-26T16:07:51Z</time>
</trkpt>
<trkpt lat="34.719763" lon="135.215642">
 <ele>143.5</ele>
 <time>2020-03-26T16:07:51Z</time>
</trkpt>
<trkpt lat="34.719582" lon="135.215814">
 <ele>140.5</ele>
 <time>2020-03-26T16:07:51Z</time>
</trkpt>
<trkpt lat="34.719600" lon="135.215943">
 <ele>139.2</ele>
 <time>2020-03-26T16:07:51Z</time>
</trkpt>
<trkpt lat="34.719754" lon="135.216265">
 <ele>139.3</ele>
 <time>2020-03-26T16:07:51Z</time>
</trkpt>
</trkseg>
</trk>
</gpx>

